[[{"header":{"parameterUnit":"m.s-1","parameterCategory":1,"la1":30.2991,"la2":30.254,"lo1":-89.0895,"lo2":-89.0444,"dy":0.0017,"dx":0.0017,"nx":28,"ny":28,"refTime":"2024-04-17T09:00:00:Z","depth":0,"parameterNumber":2,"parameterNumberName":"U-component_of_WINDS"},"data":[0,0,0,0,0,0,0,0,0,0,0,0,0,0,0,0,0,0,0,0,0,0,0,0,0,0,0,0,0,0,0,0,0,0,0,0,0,0,0,0,0,0,0,0,0,0,0,0,0,0,0,0,0,0,0,0,0,0,-2.8091,-2.8092,0,-2.8163,-2.8164,-2.8165,-2.8157,-2.8156,-2.8155,-2.8154,-2.8228,-2.8231,-2.8234,0,0,0,0,0,0,0,0,0,0,0,0,0,-2.7948,-2.7951,-2.8091,-2.8092,-2.8093,-2.8163,-2.8164,-2.8165,-2.8157,-2.8156,-2.8154,-2.8153,-2.8227,-2.8231,-2.8234,0,0,0,0,0,0,0,0,0,0,0,0,0,-2.8014,-2.7952,-2.8091,-2.8097,-2.8099,-2.8163,-2.8164,-2.8165,-2.8158,-2.8156,-2.8154,-2.8152,-2.8226,-2.823,-2.8235,-2.8297,0,0,-2.8249,-2.8251,0,0,0,0,0,0,0,0,-2.8011,-2.802,-2.8096,-2.8097,-2.8099,-2.8149,-2.8141,-2.8209,-2.8158,-2.8135,-2.8154,-2.8152,-2.8203,-2.821,-2.8227,-2.8301,-2.8304,-2.8249,-2.8252,-2.8254,-2.8255,0,0,0,0,0,0,0,-2.8006,-2.8016,-2.8119,-2.8097,-2.8099,-2.8097,-2.8105,-2.8154,-2.8178,-2.8137,-2.8137,-2.8145,-2.8204,-2.8222,-2.8229,-2.8305,-2.8249,-2.8253,-2.8256,-2.8258,-2.8434,-2.8435,0,0,0,0,0,0,-2.8,-2.8013,-2.8117,-2.8122,-2.805,-2.8101,-2.811,-2.8135,-2.8177,-2.8182,-2.8147,-2.8145,-2.8216,-2.8223,-2.8231,-2.8307,-2.8254,-2.8258,-2.8261,-2.8432,-2.8434,-2.8436,0,0,0,0,0,0,-2.7997,-2.8009,-2.8114,-2.8067,-2.808,-2.8105,-2.8134,-2.8137,-2.8156,-2.8185,-2.8189,-2.8161,-2.8214,-2.8225,-2.8281,-2.8309,-2.826,-2.8264,-2.8429,-2.8432,-2.8435,-2.8458,0,0,0,0,0,0,-2.7993,-2.8008,-2.8032,-2.8068,-2.8083,-2.8162,-2.8136,-2.814,-2.8163,-2.8162,-2.8199,-2.8204,-2.8214,-2.8274,-2.8285,-2.8314,-2.8268,-2.8427,-2.8431,-2.8434,-2.8455,-2.8461,-2.8467,0,0,0,0,0,-2.7988,-2.8035,-2.8033,-2.8045,-2.8113,-2.8164,-2.8173,-2.8183,-2.8166,-2.819,-2.8209,-2.8203,-2.8304,-2.828,-2.8292,-2.8323,-2.8425,-2.843,-2.8434,-2.8452,-2.846,-2.8467,0,0,0,0,0,0,-2.8002,-2.804,-2.8038,-2.8098,-2.8128,-2.8162,-2.8193,-2.8191,-2.8226,-2.8223,-2.8234,-2.8243,-2.8299,-2.8317,-2.8289,-2.8386,-2.8363,-2.837,-2.8372,-2.838,-2.8386,-2.838,-2.8272,0,0,0,0,0,-2.8012,-2.805,-2.8082,-2.8132,-2.8147,-2.8168,-2.819,-2.8196,-2.8227,-2.8239,-2.8262,-2.8293,-2.8332,-2.8357,-2.8394,-2.8458,-2.8466,-2.8486,-2.8492,-2.8496,-2.8502,-2.8537,-2.8546,-2.845,-2.845,-2.845,0,0,-2.8033,-2.8059,-2.8082,-2.8136,-2.8159,-2.8199,-2.8178,-2.8221,-2.825,-2.8246,-2.83,-2.8318,-2.8353,-2.8413,-2.8441,-2.843,-2.853,-2.8502,-2.8506,-2.8509,-2.8542,-2.8551,-2.8559,-2.8453,-2.8453,-2.8452,0,0,-2.8092,-2.8116,-2.816,-2.8184,-2.822,-2.8234,-2.8245,-2.828,-2.8292,-2.8346,-2.8344,-2.8379,-2.8446,-2.8471,-2.8493,-2.8562,-2.8558,-2.8575,-2.8606,-2.8639,-2.8647,-2.8654,-2.8678,-2.8687,-2.858,-2.858,-2.858,0,-2.8114,-2.8173,-2.8184,-2.8226,-2.825,-2.8248,-2.8294,-2.8317,-2.8363,-2.838,-2.8367,-2.8451,-2.8475,-2.854,-2.8557,-2.8575,-2.8588,-2.8569,-2.8645,-2.8652,-2.8658,-2.8682,-2.8691,-2.8582,-2.8582,-2.8582,-2.8582,0,-2.8198,-2.8239,-2.8271,-2.8316,-2.8343,-2.8387,-2.8405,-2.8431,-2.8435,-2.845,-2.8506,-2.8534,-2.8577,-2.8594,-2.8598,-2.866,-2.8652,-2.8642,-2.8619,-2.8669,-2.8691,-2.87,-2.8584,-2.8584,-2.8583,-2.8583,0,0,-2.8267,-2.8317,-2.8329,-2.8349,-2.8389,-2.8421,-2.8465,-2.8507,-2.853,-2.8563,-2.86,-2.8657,-2.8648,-2.8672,-2.868,-2.8709,-2.8762,-2.8696,-2.8697,-2.8706,-2.8833,-2.8839,-2.8849,-2.8761,-2.8762,-2.8764,-2.883,0,-2.8329,-2.8407,-2.8418,-2.8487,-2.8525,-2.8524,-2.8563,-2.8592,-2.8608,-2.8643,-2.866,-2.87,-2.8686,-2.87,-2.873,-2.8749,-2.8788,-2.8745,-2.8795,-2.8797,-2.8785,-2.8861,-2.8868,-2.8929,-2.8838,-2.884,-2.8841,0,-2.8412,-2.8446,-2.8518,-2.8553,-2.857,-2.8604,-2.8644,-2.8677,-2.8711,-2.872,-2.8748,-2.8751,-2.8798,-2.8773,-2.8837,-2.8808,-2.883,-2.8843,-2.8845,-2.8849,-2.8821,-2.8866,-2.8948,-2.8957,-2.8855,-2.8854,-2.8853,0,-2.8453,-2.8518,-2.857,-2.8587,-2.863,-2.8654,-2.8673,-2.8704,-2.8729,-2.8764,-2.878,-2.882,-2.8842,-2.8873,-2.8888,-2.8869,-2.8951,-2.8928,-2.896,-2.896,-2.8976,-2.8975,-2.9062,-2.8992,-2.8992,-2.8992,-2.8991,0,-2.8521,-2.8565,-2.8589,-2.8621,-2.867,-2.8683,-2.8732,-2.8751,-2.8779,-2.8814,-2.8817,-2.8851,-2.8868,-2.8904,-2.8916,-2.8967,-2.8978,-2.8986,-2.8989,-2.8986,-2.8984,-2.8999,-2.8995,-2.8994,-2.8994,-2.8993,-2.8993,0,-2.8576,-2.8593,-2.8649,-2.8685,-2.8695,-2.873,-2.8761,-2.8792,-2.8808,-2.8853,-2.8864,-2.8889,-2.8932,-2.895,-2.9003,-2.9011,-2.9069,-2.9069,-2.9058,-2.9058,-2.9089,-2.9085,-2.9187,-2.9201,-2.9123,-2.9124,-2.9125,0,-2.8617,-2.8651,-2.869,-2.8714,-2.8733,-2.8772,-2.8797,-2.8812,-2.8838,-2.8879,-2.8905,-2.8948,-2.8983,-2.9051,-2.9074,-2.9115,-2.9115,-2.9148,-2.9121,-2.9117,-2.9114,-2.9112,-2.9115,-2.9152,-2.9153,-2.9154,-2.9154,0,-2.8689,-2.8696,-2.8732,-2.8771,-2.8801,-2.8833,-2.8864,-2.8883,-2.8903,-2.8932,-2.8976,-2.9003,-2.9057,-2.9099,-2.9141,-2.9161,-2.9161,-2.9163,-2.9172,-2.9169,-2.916,-2.9165,-2.907,-2.916,-2.916,-2.9159,-2.9159,-2.9159,-2.8737,-2.8767,-2.88,-2.884,-2.8865,-2.8894,-2.8924,-2.8944,-2.8981,-2.9025,-2.9032,-2.9079,-2.9112,-2.9168,-2.919,-2.9227,-2.9219,-2.9232,-2.9236,-2.9239,-2.924,-2.9156,-2.9235,-2.9235,-2.9234,-2.9234,-2.9234,0,-2.8808,-2.8829,-2.8866,-2.8909,-2.8941,-2.8938,-2.8973,-2.8999,-2.904,-2.9071,-2.9105,-2.9155,-2.9197,-2.9224,-2.9265,-2.929,-2.9291,-2.93,-2.9298,-2.9303,-2.9246,-2.9233,-2.9299,-2.9299,-2.9299,-2.9299,-2.9299,-2.9299,-2.8849,-2.8899,-2.8911,-2.8974,-2.8995,-2.904,-2.906,-2.9087,-2.9111,-2.9167,-2.9201,-2.9218,-2.9248,-2.9292,-2.933,-2.9337,-2.9352,-2.9361,-2.9368,-2.9313,-2.9307,-2.93,-2.9288,-2.9365,-2.9365,-2.9422,-2.9422,-2.9422]},{"header":{"parameterUnit":"m.s-1","parameterCategory":1,"la1":30.2991,"la2":30.254,"lo1":-89.0895,"lo2":-89.0444,"dy":0.0017,"dx":0.0017,"nx":28,"ny":28,"refTime":"2024-04-17T09:00:00:Z","depth":0,"parameterNumber":3,"parameterNumberName":"V-component_of_WINDS"},"data":[0,0,0,0,0,0,0,0,0,0,0,0,0,0,0,0,0,0,0,0,0,0,0,0,0,0,0,0,0,0,0,0,0,0,0,0,0,0,0,0,0,0,0,0,0,0,0,0,0,0,0,0,0,0,0,0,0,0,4.7205,4.7205,0,4.7205,4.7205,4.7205,4.7154,4.7153,4.7151,4.715,4.7149,4.7151,4.7152,0,0,0,0,0,0,0,0,0,0,0,0,0,4.7159,4.716,4.7205,4.7205,4.7205,4.7205,4.7205,4.7205,4.7154,4.7153,4.7151,4.7149,4.7149,4.715,4.7152,0,0,0,0,0,0,0,0,0,0,0,0,0,4.7171,4.7161,4.7205,4.718,4.7177,4.7205,4.7205,4.7205,4.7155,4.7153,4.715,4.7149,4.7149,4.715,4.7152,4.7204,0,0,4.7158,4.7159,0,0,0,0,0,0,0,0,4.7171,4.7173,4.7183,4.7181,4.7179,4.7178,4.7189,4.7205,4.7155,4.7163,4.715,4.7148,4.716,4.7161,4.7166,4.7204,4.7204,4.7158,4.7159,4.716,4.7161,0,0,0,0,0,0,0,4.717,4.7173,4.7205,4.7183,4.7181,4.7168,4.7167,4.7192,4.7173,4.7162,4.7159,4.7159,4.7159,4.7164,4.7165,4.7204,4.7158,4.716,4.7161,4.7162,4.7287,4.7289,0,0,0,0,0,0,4.7173,4.7172,4.7205,4.7205,4.717,4.717,4.717,4.718,4.7173,4.717,4.7161,4.7157,4.7162,4.7163,4.7165,4.7226,4.716,4.7162,4.7163,4.7285,4.7287,4.729,0,0,0,0,0,0,4.7172,4.7176,4.7205,4.7188,4.7191,4.7173,4.7185,4.7181,4.7186,4.7172,4.7168,4.717,4.716,4.7162,4.7195,4.7225,4.7163,4.7164,4.7282,4.7285,4.7288,4.7348,0,0,0,0,0,0,4.7171,4.7176,4.7196,4.7189,4.7192,4.7236,4.7187,4.7183,4.719,4.7184,4.7179,4.7176,4.7159,4.7193,4.7197,4.7227,4.7166,4.7279,4.7283,4.7287,4.7343,4.7353,4.7361,0,0,0,0,0,4.7169,4.7212,4.7197,4.7201,4.7216,4.7237,4.7239,4.7218,4.7192,4.7212,4.7203,4.7176,4.7221,4.7197,4.7201,4.7232,4.7277,4.7282,4.7287,4.7339,4.7351,4.7361,0,0,0,0,0,0,4.7223,4.7211,4.7194,4.7236,4.7238,4.7229,4.7253,4.7231,4.7241,4.7235,4.7209,4.7208,4.7245,4.7242,4.7214,4.7282,4.7245,4.7251,4.7283,4.7294,4.7303,4.7303,4.7167,0,0,0,0,0,4.7239,4.7258,4.7247,4.7285,4.7287,4.727,4.7278,4.7262,4.7263,4.7264,4.7257,4.7259,4.7274,4.7284,4.7296,4.7343,4.7341,4.7366,4.7375,4.7383,4.7388,4.7413,4.7424,4.7306,4.7306,4.7306,0,0,4.7274,4.727,4.7283,4.7295,4.7295,4.7315,4.7271,4.7293,4.7308,4.7267,4.7298,4.7293,4.7294,4.7334,4.7351,4.7332,4.7421,4.7389,4.7395,4.7396,4.7419,4.743,4.744,4.7309,4.7309,4.7308,0,0,4.7347,4.7346,4.7377,4.7379,4.7379,4.7368,4.7376,4.737,4.7365,4.7396,4.7366,4.7383,4.7409,4.741,4.7414,4.749,4.7466,4.7495,4.7541,4.7566,4.7575,4.7583,4.761,4.762,4.75,4.75,4.75,0,4.7389,4.7418,4.7396,4.7421,4.7428,4.7393,4.7425,4.7427,4.7432,4.7437,4.7416,4.7448,4.7445,4.7486,4.7504,4.7509,4.7517,4.7495,4.7575,4.7583,4.7591,4.7616,4.7626,4.7504,4.7503,4.7503,4.7503,0,4.747,4.7491,4.7517,4.7523,4.7532,4.7561,4.7543,4.7555,4.7539,4.753,4.7562,4.7558,4.757,4.7578,4.7562,4.7617,4.7605,4.758,4.7542,4.7606,4.7629,4.7639,4.7509,4.7507,4.7506,4.7506,0,0,4.7575,4.757,4.758,4.7583,4.7582,4.7597,4.7625,4.7636,4.7647,4.7652,4.7674,4.7697,4.7675,4.768,4.7664,4.7685,4.7745,4.7658,4.7657,4.7674,4.7805,4.7824,4.7835,4.773,4.7732,4.7733,4.7805,0,4.7646,4.7692,4.7674,4.7722,4.7741,4.7709,4.7732,4.7734,4.7727,4.7742,4.7733,4.775,4.7719,4.7722,4.7742,4.7734,4.7771,4.7728,4.775,4.7751,4.775,4.7847,4.7867,4.7935,4.7814,4.7816,4.7817,0,4.7734,4.7744,4.7794,4.779,4.7797,4.7819,4.7829,4.7844,4.7845,4.7838,4.7845,4.7824,4.7851,4.7813,4.7849,4.7821,4.7828,4.7826,4.7828,4.7829,4.7787,4.785,4.7956,4.7966,4.7831,4.783,4.7829,0,4.7806,4.7831,4.7864,4.7868,4.7864,4.788,4.788,4.788,4.7888,4.7897,4.7902,4.7914,4.792,4.7929,4.7913,4.7887,4.7951,4.7912,4.7946,4.7946,4.796,4.7959,4.8068,4.7966,4.7966,4.7966,4.7966,0,4.7886,4.7918,4.7896,4.7917,4.7952,4.7931,4.7966,4.7961,4.7962,4.7981,4.7954,4.7972,4.7949,4.7965,4.7952,4.7984,4.7987,4.7982,4.7978,4.7984,4.7985,4.7989,4.7983,4.7968,4.7968,4.7967,4.7967,0,4.7972,4.7959,4.7993,4.7988,4.7987,4.8013,4.8008,4.8027,4.8018,4.8042,4.8047,4.8033,4.8051,4.8035,4.8052,4.8043,4.8086,4.8075,4.8086,4.8082,4.8117,4.8114,4.8232,4.8246,4.8135,4.8136,4.8137,0,4.8024,4.8047,4.8045,4.8056,4.8058,4.8076,4.8085,4.8065,4.8076,4.808,4.8099,4.8114,4.8125,4.8155,4.8147,4.816,4.8149,4.8189,4.8151,4.8156,4.8149,4.8148,4.815,4.8197,4.8198,4.8199,4.82,0,4.8117,4.811,4.8124,4.8137,4.8149,4.8157,4.8164,4.8174,4.8154,4.8168,4.8186,4.8195,4.8213,4.8228,4.8239,4.8238,4.8216,4.8213,4.8221,4.8227,4.8232,4.823,4.8107,4.821,4.8209,4.8208,4.8208,4.8207,4.8187,4.8207,4.8209,4.8226,4.823,4.8237,4.8254,4.8248,4.8263,4.8276,4.8264,4.8286,4.8288,4.83,4.8301,4.8318,4.8301,4.8314,4.8317,4.832,4.8325,4.823,4.832,4.832,4.8319,4.8319,4.8319,0,4.828,4.828,4.8296,4.8306,4.832,4.8299,4.8305,4.8318,4.8338,4.8342,4.8354,4.8375,4.8391,4.8384,4.8397,4.8412,4.8403,4.8417,4.8415,4.8415,4.8339,4.8331,4.8424,4.8424,4.8424,4.8424,4.8424,4.8424,4.8329,4.8362,4.8355,4.839,4.8389,4.8411,4.8417,4.8423,4.8426,4.8451,4.8464,4.846,4.846,4.8473,4.8487,4.8484,4.849,4.8508,4.8502,4.8431,4.842,4.8411,4.8402,4.8509,4.8509,4.8576,4.8577,4.8577]}]]